Weather History for KNBC - May, 2013

Change the Weather History Date:

Wednesday, May 22, 2013

  Actual Average Record
Temperature  
Mean Temperature 74 °F -  
Max Temperature 86 °F 83 °F - (-1)
Min Temperature 64 °F 65 °F - (-1)
Cooling Degree Days 9    
Growing Degree Days 24 (Base 50)    
Moisture  
Dew Point 66 °F    
Average Humidity 77    
Maximum Humidity 96    
Minimum Humidity 51    
Precipitation  
Precipitation 0.00 in - - ()
Sea Level Pressure  
Sea Level Pressure 30.00 in    
Wind  
Wind Speed 2 mph (South)    
Max Wind Speed 7 mph    
Max Gust Speed -    
Visibility 9 miles    
Events Fog    
Averages and records for this station are not official NWS values.
T = Trace of Precipitation, MM = Missing Value Source: NWS Daily Summary

Daily Weather History Graph

Daily Weather History Graph

Search for Another Location

Airport or City:

Trip Planner

Search our weather history database for the weather conditions in past years. The results will help you decide how hot, cold, wet, or windy it might be!

Date:

Astronomy

May. 22, 2013 Rise Set
Actual Time 6:20 AM EDT 8:19 PM EDT
Civil Twilight 5:52 AM EDT 8:46 PM EDT
Nautical Twilight 5:19 AM EDT 9:20 PM EDT
Astronomical Twilight 4:43 AM EDT 9:55 PM EDT
Moon 5:47 PM EDT (5/22) 4:13 AM EDT (5/22)
Length of Visible Light 14h 54m
Length of Day
13h 58m
Waxing Gibbous, 91% of the Moon is Illuminated
May 22
Waxing Gibbous
May 25
Full
May 31
Last Quarter
Jun 8
New
Jun 16
First Quarter

Hourly Weather History & Observations

Time (EDT) Temp. Heat Index Dew Point Humidity Pressure Visibility Wind Dir Wind Speed Gust Speed Precip Events Conditions
12:56 AM 70.0 °F - 66.9 °F 90% 30.01 in 10.0 mi South 3.5 mph - N/A   Clear
1:56 AM 70.0 °F - 66.9 °F 90% 30.01 in 10.0 mi South 4.6 mph - N/A   Clear
2:56 AM 69.1 °F - 66.0 °F 90% 30.01 in 10.0 mi Calm Calm - N/A   Clear
3:56 AM 66.9 °F - 64.0 °F 90% 30.00 in 10.0 mi Calm Calm - N/A   Clear
4:56 AM 66.9 °F - 64.0 °F 90% 29.99 in 10.0 mi Calm Calm - N/A   Clear
5:44 AM 66.0 °F - 64.0 °F 93% 29.99 in 1.5 mi Calm Calm - N/A   Partly Cloudy
5:49 AM 66.0 °F - 64.9 °F 96% 29.99 in 0.8 mi Calm Calm - N/A   Mist
5:56 AM 66.0 °F - 64.9 °F 96% 30.00 in 0.5 mi Calm Calm - N/A Fog Fog
6:13 AM 66.0 °F - 64.9 °F 96% 30.00 in 1.2 mi Calm Calm - N/A   Mostly Cloudy
6:15 AM 66.0 °F - 64.9 °F 96% 30.00 in 4.0 mi Calm Calm - N/A   Mostly Cloudy
6:24 AM 64.9 °F - 63.0 °F 93% 30.00 in 10.0 mi Calm Calm - N/A   Partly Cloudy
6:56 AM 66.0 °F - 64.0 °F 93% 30.01 in 10.0 mi Calm Calm - N/A   Partly Cloudy
7:56 AM 73.0 °F - 70.0 °F 90% 30.02 in 10.0 mi Calm Calm - N/A   Clear
8:47 AM 75.9 °F - 69.1 °F 79% 30.02 in 10.0 mi Calm Calm - N/A   Partly Cloudy
8:56 AM 77.0 °F - 69.1 °F 76% 30.02 in 10.0 mi SE 3.5 mph - N/A   Partly Cloudy
9:12 AM 78.1 °F - 69.1 °F 74% 30.02 in 10.0 mi SSE 3.5 mph - N/A   Mostly Cloudy
9:56 AM 80.1 °F 82.3 °F 66.9 °F 64% 30.03 in 10.0 mi Variable 4.6 mph - N/A   Mostly Cloudy
10:53 AM 80.6 °F 82.3 °F 64.4 °F 58% 30.02 in 10.0 mi Calm Calm - N/A   Mostly Cloudy
10:56 AM 82.0 °F 83.8 °F 64.9 °F 56% 30.03 in 10.0 mi Calm Calm - N/A   Mostly Cloudy
11:56 AM 82.9 °F 85.0 °F 66.0 °F 56% 30.03 in 10.0 mi Variable 4.6 mph - N/A   Mostly Cloudy
12:56 PM 82.0 °F 85.9 °F 70.0 °F 67% 30.02 in 10.0 mi SE 6.9 mph - N/A   Mostly Cloudy
1:56 PM 84.9 °F 88.2 °F 68.0 °F 57% 30.00 in 10.0 mi Variable 4.6 mph - N/A   Mostly Cloudy
2:56 PM 84.9 °F 87.6 °F 66.9 °F 55% 29.99 in 10.0 mi South 5.8 mph - N/A   Mostly Cloudy
3:56 PM 82.9 °F 85.0 °F 66.0 °F 56% 29.97 in 10.0 mi South 6.9 mph - N/A   Mostly Cloudy
4:56 PM 84.0 °F 85.4 °F 64.0 °F 51% 29.96 in 10.0 mi South 5.8 mph - N/A   Mostly Cloudy
5:56 PM 82.0 °F 83.4 °F 64.0 °F 54% 29.95 in 10.0 mi South 5.8 mph - N/A   Scattered Clouds
6:56 PM 80.1 °F 82.1 °F 66.0 °F 62% 29.94 in 10.0 mi South 5.8 mph - N/A   Scattered Clouds
7:56 PM 77.0 °F - 68.0 °F 74% 29.94 in 10.0 mi SSE 4.6 mph - N/A   Scattered Clouds
8:56 PM 77.0 °F - 66.9 °F 71% 29.95 in 10.0 mi South 4.6 mph - N/A   Scattered Clouds
9:56 PM 75.0 °F - 66.9 °F 76% 29.97 in 10.0 mi SSW 3.5 mph - N/A   Scattered Clouds
10:56 PM 75.0 °F - 68.0 °F 79% 29.98 in 10.0 mi Calm Calm - N/A   Scattered Clouds
11:56 PM 72.0 °F - 66.0 °F 81% 29.97 in 10.0 mi Calm Calm - N/A   Partly Cloudy